Back to catalog

ONEWEB-0569

AliveCommunicationsPO
NORAD 55148·PAYLOAD·🇬🇧 United Kingdom

Launched Jan 10, 2023 from Cape Canaveral Space Force Station

Loading…

Next Passes (next 24 hours)

TLE

FreshSource: CelesTrak SupGP

Epoch: Sep 14, 2026, 12:55 UTC

1 55148C 23004J   26257.53833750  .00003566  00000+0  97771-2 0  2577
2 55148  87.8918 302.4501 0001617  70.1804  31.7229 13.13463546    17

Track ONEWEB-0569 in real time with AllMySat

Download on the App Store